Lid_Strength_Index
-0 -0 0 -0 -0 0 0 1 2 4 3 1 1 -1 -1 -1 -2 -2 -1 1 0 0 0 0 -1 -1 -1 -1 -0 -0 -1 -1 -1 -1 -1 -1 -2 -2
-0 -0 -0 -0 0 0 0 0 1 2 4 1 0 -1 -1 -1 -1 -2 -1 1 1 0 1 1 0 -1 -1 -1 -0 0 0 -0 -1 -1 -1 -1 -1 -1
-0 -0 -0 -1 -0 0 0 0 1 1 3 1 0 -1 -0 -0 -1 -1 -1 -1 -1 1 1 1 1 0 -0 -0 0 0 0 0 1 0 -1 -0 -1 -1
-0 -0 0 0 0 0 0 0 0 0 2 2 1 -0 0 -1 -1 -0 -0 -1 -1 1 1 2 2 2 1 1 2 2 2 1 1 1 1 -0 -1 -1
-0 -0 0 -0 0 0 -0 1 1 1 0 2 2 -0 0 0 0 -0 -0 -1 -1 1 2 2 3 3 3 2 3 3 3 3 2 2 3 2 1 0
-0 -0 -0 0 0 0 0 0 0 1 1 1 2 1 1 0 1 1 2 0 0 -1 1 1 2 3 3 3 3 3 4 5 5 4 4 4 4 3
-0 -0 -0 -0 1 1 0 0 -0 1 1 2 2 1 2 2 2 1 2 1 0 -0 0 -0 0 0 0 3 1 3 4 4 5 5 5 5 6 5
0 -0 -0 0 0 2 2 2 0 1 1 2 2 2 1 1 1 1 2 2 4 -1 0 1 -0 0 -1 -1 1 2 4 4 5 5 6 5 5 6
0 0 0 -0 -0 -0 2 3 2 3 2 0 2 1 2 1 0 1 1 2 2 0 0 2 -0 1 -1 -0 3 3 4 4 5 5 6 6 6 6
-0 -0 -0 0 -0 0 0 0 0 0 0 0 0 0 0 -0 -0 0 0 1 1 0 -0 3 0 1 -0 -1 2 4 5 5 6 6 6 7 8 8
-0 -0 -0 0 2 4 0 1 1 0 1 3 3 3 3 4 2 -0 2 2 3 2 0 1 1 1 0 0 -1 4 5 6 7 7 7 7 8 9
0 -1 1 0 4 5 0 1 2 1 0 0 -0 1 2 -0 3 -0 1 3 3 3 1 2 1 1 3 0 -0 -1 2 6 8 8 8 8 9 4
1 0 -0 3 5 5 4 2 1 0 1 1 1 0 0 -0 -0 -0 -0 1 2 2 0 1 1 1 2 2 2 0 0 2 5 5 9 9 10 7
1 0 0 5 6 6 5 3 3 2 1 1 2 2 1 1 0 0 -1 -0 -1 0 -1 -0 1 2 2 3 3 3 2 2 2 3 2 6 10 9
0 1 4 6 6 5 5 5 5 1 1 2 2 2 1 0 -0 0 -0 -1 -1 -1 -0 1 0 1 1 2 2 2 3 3 3 3 3 3 3 5
1 0 2 4 6 4 3 0 0 1 1 2 2 1 0 1 1 0 1 1 2 1 1 1 1 0 2 2 2 2 3 4 2 3 3 4 4 4
3 0 1 1 1 2 1 1 1 0 1 1 1 1 1 1 1 0 1 1 3 2 2 2 1 1 2 3 4 3 5 5 4 3 4 5 5 5
1 1 2 2 2 2 3 3 2 2 2 2 1 2 2 2 2 1 1 1 3 2 2 2 2 4 5 4 3 4 4 4 4 4 5 6 6 5
1 0 1 2 2 2 2 3 4 3 2 2 2 2 2 2 2 2 2 2 3 2 2 3 3 3 5 5 4 5 3 4 5 5 6 6 6 6
0 0 1 0 1 1 1 1 2 2 2 2 2 2 2 2 2 3 2 3 3 2 2 2 3 4 4 4 3 4 8 4 6 7 7 6 7 6
-0 -0 -1 -0 0 1 1 1 1 1 2 2 1 1 2 2 2 2 2 6 5 3 3 3 3 4 4 4 5 5 5 8 6 6 7 8 8 9
-0 -0 -1 -1 -1 -0 -0 1 1 1 1 1 1 1 1 1 2 2 2 2 2 3 3 3 3 3 4 5 5 5 6 6 7 7 6 6 7 9
-0 -1 -1 -1 -1 -1 -1 -0 0 0 0 1 1 1 1 1 1 1 1 1 2 2 2 3 3 2 3 3 4 4 5 5 6 6 6 6 6 6